STARLINK-32204 (60584 NORAD) Tracking and Keplerian Element Data

This shows tracking and keplerian element data for the satellite.

Feedback or suggestion? Click here.




ElementValue
Catalog60584
NameSTARLINK-32204
Epoch Orbit948
Epoch Day286.65812022
Epoch Year2024
RAAN170.7359
Inclination53.1603
Eccentricity2.74E-05
Argument of Perigee209.9034
Mean Anonmoly150.1955
Mean Motion15.39603661
Decay Rate-3.707E-05
L11 60584U 24150B 24286.65812022 -.00003707 00000+0 -82809-4 0 9992
L22 60584 53.1603 170.7359 0000274 209.9034 150.1955 15.39603661 9482



Live tracking and technical data element details for STARLINK-32204 (NORAD 60584). STARLINK-32204 can be tracked NOW for your location showing map with azimuth and elevation plus other details from your city location.







IsCatalogInMostPopularTable: catalog: 60584, numindb: 7
Update: records affected: 1



GetName: 60584 STARLINK-32204

Hit Count: updated at: Tue, 03 Dec 2024 01:30:37 GMT